Location: Unspecified
(45.6635°N, 122.4424°W)
Time: 21:11:15
(UTC+00:00)

Cosmos 2058 - Visible Passes

Search period start: 20 June 2018 00:00
Search period end: 30 June 2018 00:00
Orbit: 562 x 585 km, 82.5° (Epoch: 20 June)

Date Brightness Start Highest point End Pass type
(mag) Time Alt. Az. Time Alt. Az. Time Alt. Az.
20 Jun 3.2 07:18:18 45° ESE 07:18:55 49° E 07:22:57 10° NNE visible
20 Jun 5.2 08:54:30 13° W 08:56:09 16° WNW 08:58:41 10° NNW visible
21 Jun 2.9 07:21:19 54° SSE 07:22:03 66° E 07:26:10 10° NNE visible
21 Jun 5.4 08:57:43 10° W 08:59:26 12° WNW 09:01:09 10° NW visible
22 Jun 2.8 07:24:19 55° S 07:25:11 87° E 07:29:21 10° N visible
23 Jun 5.2 05:51:20 10° E 05:52:03 10° E 05:52:47 10° ENE visible
23 Jun 3.0 07:27:19 48° SSW 07:28:21 71° W 07:32:29 10° N visible
24 Jun 4.9 05:54:05 13° E 05:55:04 14° E 05:57:10 10° NE visible
24 Jun 3.4 07:30:17 38° SW 07:31:31 53° WNW 07:35:35 10° N visible
25 Jun 4.6 05:57:02 16° ESE 05:58:07 18° E 06:00:54 10° NE visible
25 Jun 3.9 07:33:14 29° WSW 07:34:43 40° WNW 07:38:38 10° N visible
26 Jun 4.3 05:59:58 20° ESE 06:01:10 23° E 06:04:25 10° NE visible
26 Jun 4.3 07:36:10 22° WSW 07:37:56 31° WNW 07:41:37 10° N visible
27 Jun 4.0 06:02:53 24° ESE 06:04:14 29° E 06:07:49 10° NNE visible
27 Jun 4.8 07:39:05 17° WSW 07:41:10 24° WNW 07:44:33 10° NNW visible
28 Jun 3.6 06:05:47 27° SE 06:07:19 38° E 06:11:09 10° NNE visible
28 Jun 5.1 07:41:59 12° WSW 07:44:25 19° WNW 07:47:24 10° NNW visible
29 Jun 3.2 06:08:39 29° SSE 06:10:26 50° E 06:14:26 10° NNE visible
29 Jun 5.4 07:45:16 10° WSW 07:47:41 15° WNW 07:50:06 10° NNW visible
